Hourly Weather Zhidachov

Today, 14 July, Tuesday

Time Temperature Precipitation Wind Pressure Humidity
00:00 +9°C° 0 mm 2 mps 742 mmHg 93%
01:00 +9°C° 0 mm 2 mps 742 mmHg 93%
02:00 +9°C° 0 mm 2 mps 742 mmHg 93%
03:00 +9°C° 0 mm 2 mps 742 mmHg 94%
04:00 +8°C° 0 mm 2 mps 742 mmHg 94%
05:00 +8°C° 0 mm 2 mps 741 mmHg 94%
06:00 +10°C° 0 mm 2 mps 741 mmHg 91%
07:00 +13°C° 0 mm 2 mps 741 mmHg 89%
08:00 +13°C° 0 mm 3 mps 741 mmHg 86%
09:00 +16°C° 0 mm 3 mps 741 mmHg 80%
10:00 +17°C° 0 mm 3 mps 741 mmHg 75%
11:00 +18°C° 0 mm 3 mps 741 mmHg 70%
12:00 +19°C° 0.1 mm 2 mps 740 mmHg 68%
13:00 +20°C° 0.1 mm 2 mps 740 mmHg 66%
14:00 +20°C° 0.1 mm 2 mps 740 mmHg 64%
15:00 +20°C° 0.2 mm 2 mps 740 mmHg 66%
16:00 +20°C° 0.2 mm 2 mps 739 mmHg 68%
17:00 +20°C° 0.2 mm 2 mps 739 mmHg 70%
18:00 +20°C° 0.1 mm 1 mps 739 mmHg 75%
19:00 +18°C° 0.1 mm 1 mps 739 mmHg 80%
20:00 +16°C° 0.1 mm 1 mps 739 mmHg 85%
21:00 +15°C° 0 mm 1 mps 739 mmHg 87%
22:00 +14°C° 0 mm 1 mps 739 mmHg 88%
23:00 +12°C° 0 mm 0 mps 739 mmHg 89%

Tomorrow, 15 July, Wednesday

Time Temperature Precipitation Wind Pressure Humidity
00:00 +12°C° 0 mm 0 mps 739 mmHg 89%
01:00 +12°C° 0 mm 0 mps 739 mmHg 90%
02:00 +11°C° 0 mm 0 mps 739 mmHg 91%
03:00 +11°C° 0 mm 0 mps 739 mmHg 91%
04:00 +11°C° 0 mm 0 mps 739 mmHg 91%
05:00 +11°C° 0 mm 0 mps 739 mmHg 91%
06:00 +12°C° 0 mm 0 mps 739 mmHg 87%
07:00 +14°C° 0 mm 0 mps 739 mmHg 84%
08:00 +16°C° 0 mm 0 mps 740 mmHg 80%
09:00 +18°C° 0 mm 0 mps 739 mmHg 75%
10:00 +19°C° 0 mm 0 mps 739 mmHg 69%
11:00 +21°C° 0 mm 0 mps 739 mmHg 64%
12:00 +24°C° 0 mm 1 mps 739 mmHg 61%
13:00 +24°C° 0 mm 1 mps 739 mmHg 58%
14:00 +25°C° 0 mm 1 mps 739 mmHg 55%
15:00 +25°C° 0.1 mm 1 mps 739 mmHg 57%
16:00 +25°C° 0.1 mm 1 mps 738 mmHg 58%
17:00 +24°C° 0.1 mm 1 mps 738 mmHg 60%
18:00 +23°C° 0.1 mm 1 mps 738 mmHg 66%
19:00 +21°C° 0.1 mm 1 mps 738 mmHg 73%
20:00 +19°C° 0.1 mm 1 mps 738 mmHg 80%
21:00 +19°C° 0 mm 1 mps 738 mmHg 82%
22:00 +18°C° 0 mm 1 mps 738 mmHg 84%
23:00 +16°C° 0 mm 1 mps 738 mmHg 86%

Day after tomorrow, 16 July, Thursday

Time Temperature Precipitation Wind Pressure Humidity
00:00 +15°C° 0 mm 1 mps 738 mmHg 86%
01:00 +15°C° 0 mm 1 mps 738 mmHg 87%
02:00 +14°C° 0 mm 1 mps 738 mmHg 87%
03:00 +14°C° 0 mm 1 mps 738 mmHg 87%
04:00 +14°C° 0 mm 1 mps 738 mmHg 87%
05:00 +14°C° 0 mm 1 mps 737 mmHg 88%
06:00 +15°C° 0 mm 1 mps 738 mmHg 85%
07:00 +18°C° 0 mm 1 mps 738 mmHg 82%
08:00 +20°C° 0 mm 1 mps 738 mmHg 79%
09:00 +21°C° 0 mm 1 mps 738 mmHg 73%
10:00 +22°C° 0 mm 1 mps 738 mmHg 68%
11:00 +24°C° 0 mm 2 mps 737 mmHg 63%
12:00 +24°C° 0.1 mm 2 mps 737 mmHg 62%
13:00 +25°C° 0.1 mm 2 mps 737 mmHg 60%
14:00 +25°C° 0.1 mm 2 mps 737 mmHg 59%
15:00 +25°C° 1 mm 2 mps 737 mmHg 64%
16:00 +24°C° 1 mm 2 mps 736 mmHg 70%
17:00 +24°C° 1 mm 2 mps 736 mmHg 75%
18:00 +21°C° 0.7 mm 2 mps 736 mmHg 80%
19:00 +19°C° 0.7 mm 3 mps 737 mmHg 84%
20:00 +18°C° 0.7 mm 3 mps 737 mmHg 89%
21:00 +17°C° 0 mm 3 mps 737 mmHg 91%
22:00 +16°C° 0 mm 3 mps 737 mmHg 94%
23:00 +16°C° 0 mm 2 mps 737 mmHg 96%

17 July, Friday

Time Temperature Precipitation Wind Pressure Humidity
00:00 +16°C° 0 mm 2 mps 737 mmHg 96%
01:00 +16°C° 0 mm 2 mps 737 mmHg 97%
02:00 +16°C° 0 mm 2 mps 737 mmHg 97%
03:00 +15°C° 0.3 mm 2 mps 737 mmHg 97%
04:00 +15°C° 0.3 mm 2 mps 737 mmHg 97%
05:00 +15°C° 0.3 mm 2 mps 737 mmHg 98%
06:00 +15°C° 0.9 mm 2 mps 737 mmHg 97%
07:00 +15°C° 0.9 mm 2 mps 738 mmHg 97%
08:00 +15°C° 0.9 mm 1 mps 738 mmHg 97%
09:00 +15°C° 0.4 mm 1 mps 738 mmHg 96%
10:00 +16°C° 0.4 mm 1 mps 738 mmHg 94%
11:00 +16°C° 0.4 mm 1 mps 738 mmHg 93%
12:00 +16°C° 0.3 mm 1 mps 738 mmHg 93%
13:00 +16°C° 0.3 mm 2 mps 738 mmHg 93%
14:00 +16°C° 0.3 mm 2 mps 738 mmHg 93%
15:00 +17°C° 0 mm 2 mps 738 mmHg 91%
16:00 +18°C° 0 mm 1 mps 738 mmHg 88%
17:00 +19°C° 0 mm 1 mps 738 mmHg 86%
18:00 +18°C° 0 mm 1 mps 738 mmHg 87%
19:00 +18°C° 0 mm 1 mps 738 mmHg 89%
20:00 +15°C° 0 mm 0 mps 737 mmHg 91%
21:00 +15°C° 0.4 mm 0 mps 738 mmHg 92%
22:00 +15°C° 0.4 mm 0 mps 738 mmHg 94%
23:00 +14°C° 0.4 mm 0 mps 738 mmHg 96%

18 July, Saturday

Time Temperature Precipitation Wind Pressure Humidity
00:00 +15°C° 0.7 mm 1 mps 738 mmHg 96%
01:00 +15°C° 0.7 mm 1 mps 738 mmHg 97%
02:00 +15°C° 0.7 mm 1 mps 737 mmHg 97%
03:00 +15°C° 1.4 mm 1 mps 737 mmHg 97%
04:00 +15°C° 1.4 mm 1 mps 737 mmHg 98%
05:00 +14°C° 1.4 mm 1 mps 737 mmHg 98%
06:00 +15°C° 1.6 mm 2 mps 737 mmHg 98%
07:00 +15°C° 1.6 mm 2 mps 737 mmHg 98%
08:00 +15°C° 1.6 mm 2 mps 738 mmHg 97%
09:00 +15°C° 0.2 mm 2 mps 738 mmHg 97%
10:00 +16°C° 0.2 mm 2 mps 738 mmHg 96%
11:00 +16°C° 0.2 mm 2 mps 738 mmHg 95%
12:00 +16°C° 0.1 mm 2 mps 738 mmHg 94%
13:00 +16°C° 0.1 mm 2 mps 738 mmHg 93%
14:00 +18°C° 0.1 mm 1 mps 738 mmHg 92%
15:00 +18°C° 0.1 mm 1 mps 738 mmHg 90%
16:00 +19°C° 0.1 mm 1 mps 737 mmHg 88%
17:00 +19°C° 0.1 mm 1 mps 737 mmHg 86%
18:00 +19°C° 0 mm 1 mps 737 mmHg 89%
19:00 +16°C° 0 mm 0 mps 737 mmHg 91%
20:00 +15°C° 0 mm 0 mps 737 mmHg 93%
21:00 +15°C° 0 mm 0 mps 738 mmHg 93%
22:00 +14°C° 0 mm 0 mps 738 mmHg 94%
23:00 +15°C° 0 mm 1 mps 738 mmHg 94%

19 July, Sunday

Time Temperature Precipitation Wind Pressure Humidity
00:00 +14°C° 0 mm 1 mps 738 mmHg 95%
01:00 +13°C° 0 mm 0 mps 738 mmHg 95%
02:00 +12°C° 0 mm 0 mps 738 mmHg 96%
03:00 +12°C° 0 mm 0 mps 738 mmHg 96%
04:00 +12°C° 0 mm 0 mps 738 mmHg 96%
05:00 +12°C° 0 mm 0 mps 738 mmHg 96%
06:00 +14°C° 0 mm 1 mps 738 mmHg 94%
07:00 +16°C° 0 mm 1 mps 738 mmHg 92%
08:00 +18°C° 0 mm 1 mps 739 mmHg 90%
09:00 +19°C° 0.1 mm 1 mps 739 mmHg 86%
10:00 +20°C° 0.1 mm 1 mps 739 mmHg 82%
11:00 +20°C° 0.1 mm 2 mps 739 mmHg 78%
12:00 +21°C° 0.3 mm 2 mps 738 mmHg 76%
13:00 +23°C° 0.3 mm 2 mps 738 mmHg 73%
14:00 +23°C° 0.3 mm 2 mps 738 mmHg 71%
15:00 +23°C° 0.3 mm 2 mps 737 mmHg 74%
16:00 +23°C° 0.3 mm 2 mps 737 mmHg 76%
17:00 +23°C° 0.3 mm 2 mps 737 mmHg 79%
18:00 +21°C° 0.5 mm 2 mps 737 mmHg 83%
19:00 +20°C° 0.5 mm 2 mps 737 mmHg 87%
20:00 +18°C° 0.5 mm 2 mps 737 mmHg 91%
21:00 +18°C° 0.3 mm 2 mps 737 mmHg 92%
22:00 +18°C° 0.3 mm 2 mps 737 mmHg 93%
23:00 +17°C° 0.3 mm 2 mps 737 mmHg 94%
Show more